Location: Newark
(30.0333°N, 31.2167°E)
Time: 18:42:35
(UTC+00:00)

Tiros 1 despin weight - Pass Details

Date: 21 January 2020
Orbit: 594 x 642 km, 48.2° (Epoch: 27 February)

Event Time Altitude Azimuth Distance (km) Brightness Sun altitude
Rises 18:48:04 0° 290° (WNW) 2,938 ? -44.3°
Enters shadow 18:49:40 - 281° (WNW) 2,439 ? -44.6°
Reaches altitude 10° 18:51:14 10° 268° (W) 2,026 - -45.0°
Maximum altitude 18:53:59 16° 232° (SW) 1,685 - -45.6°
Drops below altitude 10° 18:56:43 10° 196° (SSW) 2,016 - -46.1°
Sets 18:59:52 0° 174° (S) 2,916 - -46.8°
